2023-041C (55983 NORAD) Tracking and Keplerian Element Data

This shows tracking and keplerian element data for the satellite.

Feedback or suggestion? Click here.




ElementValue
Catalog55983
Name2023-041C
Epoch Orbit458
Epoch Day113.12857008
Epoch Year2023
RAAN81.1751
Inclination42.0162
Eccentricity0.0007056
Argument of Perigee132.7944
Mean Anonmoly227.3491
Mean Motion15.39918078
Decay Rate0.00024411
L11 55983U 23041C 23113.12857008 .00024411 00000+0 60374-3 0 9995
L22 55983 42.0162 81.1751 0007056 132.7944 227.3491 15.39918078 4584



Live tracking and technical data element details for 2023-041C (NORAD 55983). 2023-041C can be tracked NOW for your location showing map with azimuth and elevation plus other details from your city location.







IsCatalogInMostPopularTable: catalog: 55983, numindb: 7
Update: records affected: 1



GetName: 55983 2023-041C

Hit Count: updated at: Tue, 06 Jun 2023 03:52:47 GMT